Location: Asheville, NC
(35.6000°N, 82.5500°W)
Time: 07:35:20
(UTC-04:00)

KKS-1 - Pass Details

Date: 09 January 2018
Orbit: 638 x 649 km, 98.4° (Epoch: 19 June)

Event Time Altitude Azimuth Distance (km) Brightness Sun altitude
Rises 04:47:59 0° 154° (SSE) 2,930 ? -34.4°
Reaches altitude 10° 04:50:13 10° 149° (SSE) 2,024 ? -33.9°
Enters shadow 04:50:57 15° 147° (SSE) 1,734 ? -33.8°
